Regional Weather Roundup
Issued by NWS

Home | Current Version | Previous Version | Text Only | Print | Product List | Glossary On
Versions: 1 2 3 4 5 6 7 8 9 10 11 12 13 14 15 16 17 18 19 20 21 22 23 24 25 26 27 28 29 30 31 32 33 34 35 36 37 38 39 40 41 42 43 44 45 46 47 48 49 50
000
ASUS46 KLOX 010413
RWRCA

SOUTHERN CALIFORNIA WEATHER ROUNDUP
NATIONAL WEATHER SERVICE OXNARD CALIFORNIA
900 PM PDT TUE MAY 31 2016

NOTE: "FAIR" INDICATES FEW OR NO CLOUDS BELOW 12,000 FEET WITH NO
SIGNIFICANT WEATHER AND/OR OBSTRUCTIONS TO VISIBILITY.

  -  STATIONS PRECEEDED BY AN ASTERISK (*) ARE NOT NWS OR FAA
     STATIONS AND ARE NOT SUBJECT TO NWS AND FAA QUALITY CONTROL.

CAZ041-042-087-010500-
LA AND ORANGE COUNTY COASTAL AREAS


CITY           SKY/WX    TMP DP  RH WIND       PRES   REMARKS
L.A. DOWNTOWN  CLOUDY    64  57  78 W6        29.88R
L.A. AIRPORT   CLOUDY    62  56  80 W8        29.88R
LONG BEACH     CLOUDY    62  57  83 S6        29.88R

CITY           SKY/WX    TMP DP  RH WIND       PRES   REMARKS
AVALON           N/A     63 N/A N/A SE3         N/A
FULLERTON      CLOUDY    63  56  78 VRB6      29.88R
*GETTY CENTER    N/A     55  55 100 SW5         N/A
HAWTHORNE      CLOUDY    63  56  78 W7        29.89R
*LEO CARRILLO    N/A     60  57  89 W5          N/A
*LOS ALAMITOS  CLOUDY    62  57  82 SW6       29.89R
*REDONDO BEACH   N/A     62  56  81 SW2       29.88R
SANTA ANA      CLOUDY    62  56  80 S9        29.89R
STA MONICA APT CLOUDY    62  57  83 SW7       29.88R
*UCLA            N/A     61  55  82 W5        29.86R

$$

CAZ547-548-048-010500-
LA COUNTY VALLEYS AND INLAND EMPIRE


CITY           SKY/WX    TMP DP  RH WIND       PRES   REMARKS
BURBANK        CLEAR     61  57  87 S7        29.87R
VAN NUYS       CLEAR     63  56  78 SE8       29.87R

CITY           SKY/WX    TMP DP  RH WIND       PRES   REMARKS
CORONA AIRPORT CLEAR     63  57  81 W10       29.87R
*CHATSWORTH      N/A     65  57  76 E6        29.87R
CHINO          CLEAR     64  56  75 SW8       29.88R
MARCH AFB      CLEAR     67  57  70 NW8       29.88R
*NORTHRIDGE      N/A     63  55  77 E3          N/A
ONTARIO        PTCLDY    64  55  72 W8        29.87R
*PASADENA        N/A     64  59  82 N3          N/A
RIVERSIDE      CLEAR     66  56  70 W8        29.87R
SAN BERNARDINO CLEAR     72  55  56 SW8       29.87R
*SAN GABRIEL     N/A     64  58  81 SW3       29.95R
*SAN RAFAEL HI   N/A     58  56  92 E6          N/A
*SAUGUS          N/A     77  58  51 SW7         N/A
*WHITEMAN AP   NOT AVBL
*WHITTIER HILL   N/A     60  57  89 SE5         N/A
*WOODLAND HILL   N/A     64  55  72 E2          N/A

$$

CAZ054-055-010500-
LA AND SAN BERNARDINO COUNTY MOUNTAINS


CITY           SKY/WX    TMP DP  RH WIND       PRES   REMARKS
*ACTON           N/A     72  53  52 S2          N/A
*BIG BEAR AIRP CLEAR     57  32  38 CALM      30.15S
*CHILAO          N/A     68  42  38 CALM        N/A
SANDBERG       CLEAR     73  36  25 VRB5      30.03S

$$

CAZ028-029-059-060-099-010500-
ANTELOPE VALLEY AND SURROUNDING AREAS


CITY           SKY/WX    TMP DP  RH WIND       PRES   REMARKS
LANCASTER      CLEAR     83  33  16 W21       29.84S
PALMDALE       CLEAR     82  36  19 W12       29.86R
*POPPY PARK      N/A     80  34  19 W20G33      N/A

CITY           SKY/WX    TMP DP  RH WIND       PRES   REMARKS
29 PALMS       PTCLDY    89  35  14 SW12      29.83R
BARSTOW/DAGGET CLEAR     90  26  10 S5        29.75R
BISHOP         CLEAR     77  28  16 E5        29.92R
CHINA LAKE     PTCLDY    89  33  13 W12       29.78R
EDWARDS AFB    PTCLDY    85  39  19 SW8       29.81R
MOJAVE         CLEAR     82  43  24 W21G39    29.84R
NEEDLES        CLEAR     97  31   9 SW9       29.67R HX  91
VICTORVILLE    CLEAR     82  41  23 W16G23    29.87R

$$

CAZ039-040-010500-
VENTURA AND SANTA BARBARA COUNTY COAST


CITY           SKY/WX    TMP DP  RH WIND       PRES   REMARKS
CAMARILLO      CLOUDY    59  55  87 W7        29.87S
NWS OXNARD       N/A     59  55  87 CALM      29.87S
OXNARD AIRPORT CLOUDY    58  57  97 W6        29.88S FOG
*POINT MUGU    CLOUDY    59  56  89 NW6       29.88S
SBA APT/GOLETA CLOUDY    57  54  89 SE7       29.85F
*SANTA BARBARA   N/A     59  53  79 CALM      29.94S
*VENTURA         N/A     58  56  92 SW2       29.86S

$$

CAZ044-045-010500-
VENTURA COUNTY VALLEYS


CITY           SKY/WX    TMP DP  RH WIND       PRES   REMARKS
*SIMI VALLEY     N/A     60  56  87 CALM      29.84R
*WESTLAKE VILL   N/A     59  54  84 CALM      29.86R
*OJAI            N/A     59  55  85 CALM      29.81S
*FILLMORE        N/A     61  55  81 CALM      29.78R

$$

CAZ053-010500-
VENTURA COUNTY MOUNTAINS


CITY           SKY/WX    TMP DP  RH WIND       PRES   REMARKS
*ROSE VALLEY     N/A     72  46  40 MISG        N/A

$$

CAZ034-035-036-010500-
CENTRAL COAST AND SANTA YNEZ VALLEY


CITY           SKY/WX    TMP DP  RH WIND       PRES   REMARKS
SAN LUIS OBISP CLOUDY    58  53  84 SE5       29.88S
SANTA MARIA    CLOUDY    56  54  93 NW5       29.89S

CITY           SKY/WX    TMP DP  RH WIND       PRES   REMARKS
*CAL POLY SLO    N/A     55  54  94 SW2G8       N/A
*LOMPOC        CLOUDY    56  53  90 W3        29.88S
*PISMO BEACH     N/A     55  54  94 CALM      29.89S
*SANTA YNEZ    FAIR      59  50  72 W8        29.87S

$$

CAZ037-038-051-010500-
SAN LUIS OBISPO COUNTY INTERIOR AND CUYAMA VALLEY


CITY           SKY/WX    TMP DP  RH WIND       PRES   REMARKS
PASO ROBLES    CLEAR     75  43  31 W8        29.83R

$$

CAZ032-033-061-010500-
SOUTHERN DESERTS


CITY           SKY/WX    TMP DP  RH WIND       PRES   REMARKS
BLYTHE         CLEAR     96  37  12 SW8       29.66R HX  91
IMPERIAL       CLEAR     91  39  16 SE13      29.65R
PALM SPRINGS   CLEAR     91  51  25 NW15      29.70R
THERMAL        CLEAR     90  51  26 N8        29.64R

$$

ELSEWHERE ACROSS THE WESTERN UNITED STATES AND MEXICO


CITY           SKY/WX    TMP DP  RH WIND       PRES   REMARKS
DENVER, CO     CLOUDY    54  50  86 E3        30.15R
GRAND CANYON,  CLEAR     52  27  38 CALM      30.08R
HONOLULU, HI   MOSUNNY   77  64  65 NE7       29.98S
KAHULUI, MAUI  PTSUNNY   72  70  94 E6        29.99F
LAKE TAHOE, CA CLEAR     59  44  57 CALM      30.16R
LAS VEGAS, NV  PTCLDY    93  31  11 CALM      29.72R
MAMMOTH LAKES, FAIR      62  42  48 NW8       30.20R
MEXICO CITY, M LGT RAIN  61  52  72 S10       30.30F
PHOENIX, AZ    MOCLDY    92  26   9 W5        29.70R
PORTLAND, OR   MOCLDY    77  46  33 NW9       29.92R
RENO, NV       PTCLDY    80  28  15 W8G24     30.02R
SALT LAKE CITY CLEAR     68  36  30 E5        30.05R
SAN DIEGO, CA  CLOUDY    64  57  78 SW6       29.91R
SAN FRANCISCO, PTCLDY    58  47  66 W16       29.82R
SAN JOSE, CA   PTCLDY    76  50  40 W6        29.81R
SEATTLE, WA    MOCLDY    71  43  36 N8        29.97S
TIJUANA, MEX   CLOUDY    61  54  77 W5        29.93R

$$

STATION/POSITION TIME  TEMP    WIND        PRES    VSBY  WAVE
                       AIR SEA DIR/SP/G                  HT/PER
                 (UTC) (F)     (DEG/KT/KT) (MB)    (MI)  (FT/S)
POINT ARGUELLO B NOT AVBL
WEST SANTA BARBA 0350   54 54  310/ 17/ 19 1010.5F         5/15
POINT CONCEPTION NOT AVBL
EAST SANTA BARBA 0400   57 59  210/  8/ 10 1011.5F
SANTA MONICA BAY 0350   60 64  290/  2/  6 1011.9R         3/15



USA.gov is the U.S. government's official web portal to all federal, state and local government web resources and services.